This is the latest recevied weather packets stored in our database for station/object W2SRH. If no packets are shown the sender has not sent any weather packets the latest 10 day(s).
| Time | Temp. | Humidity | Pressure | Rain* | Wind** | Luminosity | Snow |
|---|---|---|---|---|---|---|---|
| 1778077745 | 20.56° C | 58% | 1001.1 hPa | 0 mm | 1.79 m/s, 257° | - | - |
| 1778077144 | 20.56° C | 58% | 1001.1 hPa | 0 mm | 0.45 m/s, 255° | - | - |
| 1778076544 | 20.56° C | 58% | 1001 hPa | 0 mm | 3.13 m/s, 253° | - | - |
| 1778075945 | 20° C | 60% | 1001 hPa | 0 mm | 0.45 m/s, 205° | - | - |
| 1778075344 | 19.44° C | 61% | 1001 hPa | 0 mm | 0.89 m/s, 235° | - | - |
| 1778074744 | 19.44° C | 62% | 1001 hPa | 0 mm | 1.34 m/s, 234° | - | - |
| 1778074144 | 19.44° C | 62% | 1001.3 hPa | 0 mm | 0.89 m/s, 246° | - | - |
| 1778073545 | 19.44° C | 62% | 1001.3 hPa | 0 mm | 1.34 m/s, 208° | - | - |
| 1778072945 | 19.44° C | 62% | 1001.3 hPa | 0 mm | 1.34 m/s, 244° | - | - |
| 1778072345 | 19.44° C | 63% | 1001.2 hPa | 0 mm | 0.45 m/s, 268° | - | - |
| 1778071745 | 19.44° C | 63% | 1001.2 hPa | 0 mm | 0.89 m/s, 182° | - | - |
| 1778071145 | 19.44° C | 63% | 1001.2 hPa | 0 mm | 1.34 m/s, 202° | - | - |
| 1778070546 | 19.44° C | 64% | 1001 hPa | 0 mm | 0.45 m/s, 156° | - | - |
| 1778069945 | 18.89° C | 65% | 1001.2 hPa | 0 mm | 0.89 m/s, 207° | - | - |
| 1778069344 | 18.33° C | 67% | 1001.1 hPa | 0 mm | 0.89 m/s, 264° | - | - |
| 1778068745 | 18.33° C | 67% | 1001.2 hPa | 0 mm | 1.34 m/s, 183° | - | - |
| 1778068145 | 18.33° C | 67% | 1001.2 hPa | 0 mm | 0.45 m/s, 192° | - | - |
| 1778067545 | 18.33° C | 68% | 1001.3 hPa | 0 mm | 0.45 m/s, 236° | - | - |
| 1778067012 | 17.78° C | 70% | 1001.4 hPa | 0 mm | 0.89 m/s, 197° | - | - |
| 1778066945 | 18.33° C | 68% | 1001.3 hPa | 0 mm | 0.89 m/s, 256° | - | - |
| 1778066345 | 17.78° C | 69% | 1001.4 hPa | 0 mm | 0.45 m/s, 166° | - | - |
| 1778065744 | 17.78° C | 69% | 1001.3 hPa | 0 mm | 0.89 m/s, 230° | - | - |
| 1778065144 | 17.78° C | 70% | 1001.4 hPa | 0 mm | 0.89 m/s, 197° | - | - |
| 1778064544 | 18.33° C | 69% | 1001.2 hPa | 0 mm | 0.45 m/s, 151° | - | - |
| 1778063944 | 17.78° C | 71% | 1001.1 hPa | 0 mm | 0.45 m/s, 231° | - | - |
* Rain latest hour (hover to see other rain measurements)
** Current wind speed in m/s (hover to see current wind gust speed)